[Iaude] MPEC K148: 2024 KL1 [a=1.97,e=0.90,i=8.1,H=22.7]
    mpec at cfa.harvard.edu 
    mpec at cfa.harvard.edu
       
    Fri May 31 07:46:12 EDT 2024
    
    
  
M.P.E.C. 2024-K148                                 Issued 2024 May 31, 11:44 UT
     The Minor Planet Electronic Circulars contain information on unusual
         minor planets, routine data on comets and natural satellites,
         and occasional editorial announcements.  They are published
    on behalf of Division F of the International Astronomical Union by the
          Minor Planet Center, Smithsonian Astrophysical Observatory,
                          Cambridge, MA 02138, U.S.A.
			  
             Prepared using the Tamkin Foundation Computer Network
                              MPC at CFA.HARVARD.EDU
            URL https://www.minorplanetcenter.net/    ISSN 1523-6714
                                    2024 KL1                                    
Observations:
     K24K01L  C2024 05 29.39811515 36 28.757-17 29 41.56         18.71GVEK148F51
     K24K01L  C2024 05 29.40925015 36 14.415-17 29 11.51               VEK148F51
     K24K01L  C2024 05 29.43228515 35 44.731-17 28 08.48         18.90GVEK148F51
     K24K01L*1C2024 05 30.34316915 14 17.326-16 37 36.77         18.45GVEK148703
     K24K01L 1C2024 05 30.34548015 14 13.690-16 37 25.28         18.40GVEK148703
     K24K01L 1C2024 05 30.34778615 14 09.848-16 37 14.84               VEK148703
     K24K01L  C2024 05 30.35409015 13 59.815-16 36 50.62         18.84GVEK148I52
     K24K01L  C2024 05 30.35422715 13 59.660-16 36 50.15         18.65GVEK148I52
     K24K01L  C2024 05 30.35436315 13 59.437-16 36 49.64         19.03GVEK148I52
     K24K01L  C2024 05 30.35450915 13 59.218-16 36 48.78         18.78GVEK148I52
     K24K01L  C2024 05 30.36713015 13 38.794-16 35 56.90         18.6 GVEK148H01
     K24K01L  C2024 05 30.37030215 13 33.696-16 35 43.55         18.7 GVEK148H01
     K24K01L KC2024 05 30.37848415 13 20.705-16 35 08.59         19.24GVEK148I52
     K24K01L KC2024 05 30.37929715 13 19.391-16 35 05.86         18.59GVEK148I52
     K24K01L  C2024 05 30.38252215 13 14.077-16 34 52.48         18.9 GVEK148H01
     K24K01L  C2024 05 30.38770015 13 05.735-16 34 30.57         18.7 GVEK148H01
     K24K01L KB2024 05 30.61422 15 06 59.45 -16 18 22.4          18.7 GVEK148P13
     K24K01L KB2024 05 30.62508 15 06 40.83 -16 17 32.9          18.7 GVEK148P13
     K24K01L KB2024 05 30.63629 15 06 21.63 -16 16 41.2          18.7 GVEK148P13
     K24K01L KB2024 05 30.64473 15 06 07.12 -16 16 02.4          18.7 GVEK148P13
     K24K01L KB2024 05 30.65258 15 05 53.54 -16 15 25.8          18.6 GVEK148P13
     K24K01L KB2024 05 30.65924 15 05 42.10 -16 14 54.6          19.0 GVEK148P13
     K24K01L KC2024 05 30.78494 15 02 09.86 -16 03 29.6          18.5 GVEK148M21
     K24K01L 0B2024 05 30.78786 15 02 04.680-16 03 15.01         18.5 VZEK148M49
     K24K01L 0B2024 05 30.78933 15 02 02.045-16 03 08.28         18.8 VZEK148M49
     K24K01L 0B2024 05 30.79080 15 01 59.443-16 03 00.54         19.0 VZEK148M49
     K24K01L KC2024 05 30.79580 15 01 50.53 -16 02 36.5          18.6 GVEK148M21
     K24K01L KC2024 05 30.80694 15 01 30.64 -16 01 42.3          18.9 GVEK148M21
     K24K01L KB2024 05 30.88360214 59 12.98 -15 56 44.6          18.5 GXEK148I93
     K24K01L KB2024 05 30.88485214 59 10.70 -15 56 38.6          19.3 GXEK148I93
     K24K01L KB2024 05 30.88608914 59 08.40 -15 56 32.5          18.6 GXEK148I93
     K24K01L KB2024 05 30.90444914 58 34.91 -15 54 57.8          19.0 GXEK148I93
     K24K01L KB2024 05 30.95671 14 56 56.863-15 48 55.30         18.8 GXEK148L87
     K24K01L KB2024 05 30.96282 14 56 45.494-15 48 22.46         18.3 GXEK148L87
     K24K01L KB2024 05 30.96896 14 56 34.025-15 47 49.49         18.7 GXEK148L87
     K24K01L KB2024 05 30.98061314 56 14.24 -15 48 17.6          18.7 GXEK148958
     K24K01L KB2024 05 30.98503014 56 06.02 -15 47 52.9          18.8 GXEK148958
     K24K01L KB2024 05 30.98904414 55 58.53 -15 47 32.0          18.9 GXEK148958
     K24K01L 7C2024 05 31.06363114 53 38.002-15 40 35.08         18.9 GVEK148Z84
     K24K01L 7C2024 05 31.06551314 53 34.436-15 40 24.60         19.4 GVEK148Z84
     K24K01L KC2024 05 31.15074514 50 57.24 -15 32 31.7          19.6 GVEK148H21
     K24K01L KC2024 05 31.15272114 50 53.39 -15 32 20.1          18.6 GVEK148H21
     K24K01L KC2024 05 31.15469714 50 49.52 -15 32 08.5          19.1 GVEK148H21
     K24K01L KC2024 05 31.25297 14 47 38.97 -15 22 29.3          18.1 RVEK148G58
     K24K01L KC2024 05 31.25574 14 47 33.46 -15 22 12.5          17.8 RVEK148G58
     K24K01L KC2024 05 31.25854 14 47 27.87 -15 21 55.9          18.2 RVEK148G58
     K24K01L KC2024 05 31.32024414 45 22.748-15 15 30.28               VEK148I52
     K24K01L KC2024 05 31.32109714 45 21.028-15 15 25.20         18.13GVEK148I52
     K24K01L KC2024 05 31.32195114 45 19.296-15 15 19.51         18.83GVEK148I52
     K24K01L KC2024 05 31.32281314 45 17.554-15 15 14.15         18.54GVEK148I52
Observer details:
703 Catalina Sky Survey.  Observer K. W. Wierzchos.  Measurers T. Beuden, V.
    F. Carvajal, D. Fay, J. B. Fazekas, D. C. Fuls, A. R. Gibbs, A. D. Grauer,
    H. Groeller, J. K. Hogan, R. A. Kowalski, S. M. Larson, G. J. Leonard, D.
    Rankin, R. L. Seaman, F. C. Shelly, K. W. Wierzchos.  0.68-m Schmidt + 10K
    CCD.
958 Observatoire de Dax.  Observer P. Dupouy.  0.50-m f/4.5 Reflector + CMO.
F51 Pan-STARRS 1, Haleakala.  Observers J. Herman, T. Lowe, P. Minguez, A.
    Schultz, I. Smith.  Measurers K. Chambers, T. de Boer, J. Fairlamb, H.
    Gao, M. Huber, C.-C. Lin, E. Magnier, Y. Ramanjooloo, R. Wainscoat, R.
    Weryk.  1.8-m Ritchey-Chretien + CCD.
G58 Chabot Space and Science Center, Oakland.  Observers G. McKeegan, T.
    Deshmukh.  0.9-m f/4.5 Cassegrain+CCD.
H01 Magdalena Ridge Observatory, Socorro.  Observers W. H. Ryan, E. V. Ryan.
    Measurer W. H. Ryan.  2.4-m f/8.9 Ritchey-Chretien + CCD.
H21 Astronomical Research Observatory, Westfield.  Observer R. Holmes.
    Measurers T. Linder, R. Holmes, L. Horn.  0.81-m f/4.0 astrograph + CCD.
I52 Steward Observatory, Mt. Lemmon Station.  Observer V. F. Carvajal.
    Measurers T. Beuden, V. F. Carvajal, D. Fay, J. B. Fazekas, D. C. Fuls, A.
    R. Gibbs, A. D. Grauer, H. Groeller, J. K. Hogan, R. A. Kowalski, S. M.
    Larson, G. J. Leonard, D. Rankin, R. L. Seaman, F. C. Shelly, K. W.
    Wierzchos.  1.0-m prime focus + CCD.
I93 St Pardon de Conques.  Observer F. Losse.  0.40-m f/3.7 reflector + CMO.
L87 Moonbase South Observatory, Hakos.  Observer G. Duszanowicz.  0.28-m f/1.9
    reflector + CMO.
M21 Schiaparelli Southern Observatory, Hakos.  Observers A. Aletti, F.
    Bellini, L. Buzzi, G. Galli.  Measurer G. Galli.  0.36-m f/8.4 reflector +
    CCD.
M49 IAS Remote Observatory, Hakos.  Observers D. Husar, M. Junius, L. Demetz,
    P. Ditz, A. Karakali, T. Daiber, T. Steinbach, R. Hellot.  Measurer D.
    Husar.  0.25-m f/4.5 reflector + CMO.
P13 Baihuashan Observatory, Beijing.  Observers Z. Wang, B. Liu.  Measurer Z.
    Wang.  0.28-m f/2.2 reflector + CMO.
Z84 Calar Alto-Schmidt.  Observers F. Ocana, R. Kresken, M. Micheli, L.
    Conversi.  Measurers F. Ocana, M. Micheli.  0.8-m f/3 Schmidt + CCD.
Orbital elements:
2024 KL1                                                 Earth MOID = 0.0056 AU
Epoch 2024 Mar. 31.0 TT = JDT 2460400.5                 Veres                   
M 322.24312              (2000.0)            P               Q                  
n   0.35752862     Peri.  315.86943     +0.90610229     -0.40224496             
a   1.9660543      Node    68.26725     +0.41661660     +0.79454703             
e   0.8962394      Incl.    8.11105     +0.07354767     +0.45485603             
P   2.76           H   22.73          G   0.15           U   8                  
Residuals in seconds of arc
240529 F51  0.2+  0.1+    240530 P13  0.2+  0.2-    240530 L87  1.1-  0.3+
240529 F51  0.3-  0.0     240530 P13  0.7+  0.1+    240530 958  0.1-  0.4-
240529 F51  0.2+  0.1+    240530 P13  0.7+  0.1-    240530 958  0.2+  0.5+
240530 703  0.2-  1.3-    240530 P13  0.1-  0.0     240530 958  0.2+  0.2-
240530 703  0.6+  0.6+    240530 P13  0.7+  0.2+    240531 Z84  0.2+  0.1+
240530 703  1.5-  1.6+    240530 M21  0.1+  0.2-    240531 Z84  0.2+  0.0
240530 I52  0.7-  0.2-    240530 M49  0.3+  0.3+    240531 H21  0.1-  0.1-
240530 I52  0.2+  0.3-    240530 M49  0.1+  0.1-    240531 H21  0.2-  0.1+
240530 I52  0.1+  0.4-    240530 M49  0.3+  0.5+    240531 H21 (0.6-  0.4+)
240530 I52  0.3+  0.1-    240530 M21  0.4+  0.3+    240531 G58  0.1+  0.1-
240530 H01  0.1+  0.0     240530 M21  0.8+  0.2+    240531 G58  0.3+  0.1+
240530 H01  0.1-  0.1+    240530 I93  0.6+  0.2+    240531 G58  0.2+  0.2-
240530 I52  0.0   0.2+    240530 I93  0.5+  0.2-    240531 I52  0.0   0.0
240530 I52  0.1-  0.5-    240530 I93  0.2-  0.3-    240531 I52  0.1+  0.2-
240530 H01  0.1+  0.0     240530 I93  0.2+  0.4+    240531 I52  0.0   0.1+
240530 H01  0.1-  0.0     240530 L87  0.3-  0.3+    240531 I52  0.0   0.1+
240530 P13  0.7+  0.1-    240530 L87  0.4-  0.3+
Ephemeris:
2024 KL1                 a,e,i = 1.97, 0.90, 8                   q = 0.2040
Date    TT    R. A. (2000) Decl.     Delta      r    Elong.  Phase     V
2024 05 01    17 30 08.8 -19 33 23   0.6583  1.5587   137.7    25.8    24.0
...
2024 05 16    17 15 39.3 -19 27 33   0.3581  1.3452   155.5    18.2    22.1
...
2024 05 24    16 43 05.2 -19 08 54   0.2107  1.2209   170.6     7.8    20.3
...
2024 05 30    15 22 58.9 -16 58 10   0.1124  1.1221   163.9    14.5    19.0
2024 05 31    14 55 41.3 -15 45 22   0.09884 1.1051   156.4    21.6    19.0
2024 06 01    14 20 59.2 -13 53 09   0.08707 1.0880   146.9    30.6    18.9
...
2024 06 07    09 32 31.6 +09 11 46   0.09111 0.9816    66.1   109.0    21.6
...
2024 06 15    07 24 22.0 +16 53 22   0.2151  0.8291    26.6   146.7    26.8
...
2024 06 30    06 32 12.5 +19 10 35   0.5183  0.5011     4.1   171.6
M. P. C. Staff               (C) Copyright 2024 MPC           M.P.E.C. 2024-K148
    
    
More information about the Iaude
mailing list